x

Cape Elizabeth- 45nm Nw Of Aberdeen, Wa (46041) Wave Buoy

4:50 - Wed 22nd Mar 2017 All times are PDT. -7 hours from GMT.

  • Sig Wave height 8.5ft
  • Swell Direction
  • Peak Period 8s
  • Average Period 6s
  • Wind
    18mph, 22mph gusts
  • Sea Temp 50°f
  • Air Temp 47°f
  • Sea Pressure 1014.4mb
  • Cape Elizabeth- 45nm Nw Of Aberdeen, Wa
  • Cape Elizabeth- 45nm Nw Of Aberdeen, Wa

More Historic Weather Station data

Upgrade to MSW Pro to gain access to the past 30 days of data for over 8000 Wavebouys and Weather Stations around the globe.

Join Pro

Comparision Forecast

View Surf forecast
   
mer. 03/22 4:50 8.5ft 8s 6s 18 22 mph 1014.4mb 50f 47f
3:50 9ft 9s 6s 20 25 mph 1013.2mb 50f 48f
2:50 9ft 9s 6s 22 27 mph 1012.1mb 50f 47f
1:50 9ft 9s 7s 27 34 mph 1010.4mb 50f 47f
12:50 9ft 9s 7s 16 20 mph 1008.8mb 50f 48f
11:50 8.5ft 9s 6s 20 25 mph 1007.9mb 50f 49f
10:50 9ft 8s 6s 20 25 mph 1007.1mb 50f 49f
9:50 9ft 8s 6s 22 29 mph 1006.4mb 50f 49f
8:50 9ft 8s 6s 25 29 mph 1005.8mb 50f 49f
7:50 9ft 9s 6s 25 31 mph 1005.3mb 50f 49f
6:50 9ft 9s 6s 18 25 mph 1005mb 50f 50f
5:50 9ft 8s 6s 22 27 mph 1004.5mb 50f 49f
4:50 8.5ft 8s 6s 27 31 mph 1003.5mb 50f 50f
3:50 8ft 8s 6s 27 34 mph 1002.5mb 50f 50f
2:50 7ft 14s 7s 31 45 mph 1001.1mb 50f 50f
1:50 7ft 8s 6s 18 22 mph 1002.7mb 50f 50f
12:50 7ft 8s 6s 16 20 mph 1003.2mb 50f 50f
mar. 03/21 11:50 7ft 8s 6s 20 27 mph 1003.7mb 50f 51f
10:50 8ft 8s 6s 22 27 mph 1003.7mb 50f 51f
9:50 7ft 9s 6s 25 31 mph 1003.4mb 50f 51f
8:50 7ft 9s 7s 18 22 mph 1003.4mb 50f 51f
7:50 7ft 15s 7s 18 22 mph 1003.8mb 50f 51f
6:50 7ft 8s 6s 16 18 mph 1004.1mb 50f 50f
5:50 7ft 15s 6s 18 20 mph 1004.1mb 50f 50f
4:50 7ft 7s 6s 16 18 mph 1004.4mb 50f 51f
3:50 7ft 9s 6s 18 20 mph 1004.4mb 50f 50f
2:50 7ft 16s 6s 20 25 mph 1004.1mb 50f 50f
1:50 7ft 16s 6s 25 29 mph 1003.7mb 50f 50f
12:50 6ft 8s 5s 25 29 mph 1003.5mb 50f 50f
11:50 6ft 16s 5s 25 29 mph 1003.2mb 50f 50f
10:50 5.5ft 16s 5s 25 29 mph 1002.5mb 50f 50f
9:50 5ft 16s 5s 25 29 mph 1002.3mb 50f 49f
8:50 5ft 16s 5s 25 27 mph 1002.5mb 50f 49f
7:50 5ft 5s 5s 25 29 mph 1002.8mb 50f 49f
6:50 5ft 16s 5s 27 31 mph 1003.1mb 50f 49f
5:50 5ft 17s 5s 22 31 mph 1003.3mb 49f 49f
4:50 5ft 17s 5s 27 34 mph 1003.6mb 49f 48f
3:50 5ft 17s 5s 27 34 mph 1003.6mb 49f 49f
2:50 4.5ft 17s 5s 27 31 mph 1004.4mb 49f 49f
1:50 4.5ft 17s 5s 25 29 mph 1004.6mb 49f 49f
12:50 4.5ft 17s 5s 27 31 mph 1005.6mb 49f 50f
lun. 03/20 11:50 4ft 17s 4s 20 27 mph 1006.3mb 49f 50f
10:50 4ft 5s 4s 22 27 mph 1006.9mb 49f 50f
9:50 4ft 4s 4s 22 29 mph 1007.6mb 49f 49f
8:50 4ft 4s 4s 25 31 mph 1008.4mb 49f 49f
7:50 4ft 9s 4s 22 29 mph 1008.8mb 49f 48f
6:50 3.5ft 9s 4s 18 20 mph 1009.3mb 49f 49f
5:50 3.5ft 8s 5s 18 22 mph 1009.9mb 49f 49f
4:50 3.5ft 10s 5s 13
mph
1010.5mb 49f 48f
3:50 3.5ft 9s 5s 16 20 mph 1010.8mb 49f 49f
2:50 3.5ft 9s 5s 16 18 mph 1011.3mb 49f 49f
1:50 4ft 8s 6s 16 20 mph 1012mb 49f 48f
12:50 4ft 10s 6s 4 7 mph 1012.8mb 49f 46f
11:50 4.5ft 9s 6s 7
mph
1012.8mb 49f 46f
10:50 4.5ft 10s 6s 2 4 mph 1013.1mb 49f 45f
9:50 5ft 10s 7s 4 7 mph 1013.6mb 48f 44f
8:50 5ft 10s 7s 9
mph
1013.8mb 48f 44f
7:50 5.5ft 10s 7s 11 13 mph 1013.7mb 48f 44f
6:50 5ft 10s 7s 7 9 mph 1014.6mb 48f 44f
5:50 5.5ft 10s 7s 9 11 mph 1014.9mb 48f 44f
4:50 5ft 11s 7s 4 7 mph 1015.8mb 49f 44f
3:50 5.5ft 11s 8s 7
mph
1016.7mb 49f 44f
2:50 5.5ft 11s 8s 11 13 mph 1017.5mb 49f 44f
1:50 6ft 10s 8s 11 13 mph 1018.2mb 49f 45f
12:50 6ft 10s 8s 11 13 mph 1018.9mb 49f 45f
dim. 03/19 11:50 6.5ft 10s 8s 9 11 mph 1019.5mb 50f 47f
10:50 6ft 10s 7s 7 9 mph 1020.3mb 49f 48f
9:50 5.5ft 11s 6s 9 11 mph 1020.7mb 50f 48f
8:50 6ft 10s 7s 13 16 mph 1021.2mb 50f 49f
7:50 6ft 11s 7s 16 20 mph 1021.6mb 50f 48f
6:50 6.5ft 9s 7s 18 22 mph 1021.9mb 50f 47f
5:50 6.5ft 11s 7s 16 18 mph 1022.7mb 50f 46f
4:50 6ft 9s 7s 16 18 mph 1023.4mb 50f 46f
3:50 6.5ft 8s 8s 11 13 mph 1024mb 50f 45f
2:50 6.5ft 11s 8s 7 9 mph 1024.7mb 50f 45f
1:50 6ft 11s 7s 7 9 mph 1025.3mb 50f 44f
12:50 6ft 11s 7s 2 4 mph 1025.9mb 50f 44f
11:50 6.5ft 9s 7s 4 7 mph 1026.2mb 49f 45f
10:50 7ft 9s 7s 9 11 mph 1025.9mb 49f 44f
9:50 7ft 11s 7s 9 11 mph 1025.5mb 49f 44f
8:50 7ft 11s 8s 11 13 mph 1025mb 49f 43f
7:50 7ft 9s 7s 11 16 mph 1024.6mb 49f 43f
6:50 7.5ft 8s 7s 13 16 mph 1024.3mb 49f 42f
5:50 8ft 11s 7s 11 13 mph 1023.8mb 49f 43f
4:50 8.5ft 8s 8s 4 9 mph 1023.3mb 49f 44f
3:50 8ft 9s 7s 2 4 mph 1023mb 49f 44f
2:50 8ft 10s 7s 2 4 mph 1022.9mb 49f 43f
1:50 8ft 9s 7s 2 4 mph 1022.5mb 49f 42f
12:50 9ft 10s 7s 18 22 mph 1022.2mb 49f 43f